Find Starlink 36494

NORAD ID: 67331 Int'l Des: 2026-002 Owner: SPXS Country: US Constellation: starlink operational
LEOCIRCULAR

Live Position

Loading 3D Globe...

About Starlink 36494

Description loading...

Upcoming Passes

Passes for default location (London). Set your location on the main map for personalized predictions.

Altitude History

Loading altitude history...

Two-Line Element Set

1 67331U 26002AC 26106.71242280 .00017246 00000-0 63432-3 0 9992
2 67331 43.0026 110.5528 0001445 273.1742 86.8944 15.27602415 17054
Epoch: Apr 16, 2026 • Age: 17 hours

Current Status

Altitude 482.2 km
Velocity 7.63 km/s
Sub-Earth Point 14.71°N, 120.34°E
Launch Date Jan 4, 2026
Age 0.2 years
Type internet

Technical Details

Classification Payload
Mass 575.00 kg
Dry Mass 530.00 kg
Total Mass 575.00 kg
Length 0.30 m
Diameter 4.10 m
Span 29.00 m
Shape Box + pan
Manufacturer SPXS
Bus Type Starlink V2MO
Phase Status In Orbit
Owner/State SPXS/US

Most Searched